Showing default

KUIPER-00521, 68891

Orbit data source: Space-Track

KUIPER-00521, 68891 is an American payload satellite in LEO that was launched on Tue, 28 Apr 2026 UTC launched from the Air Force Eastern Test Range (AFETR). Payload-class satellites include a variety of spacecraft equipped with specific instruments for various scientific and technological missions. These include communications satellites like Starlink; space stations such as the ISS; scientific satellites like the Hubble; Earth observation satellites from companies like Planet Labs, Umbra, and HawkEye 360; GPS; miniature CubeSats for education and research; and military/defense satellites.

Loading next visibility...
Identifier
68891, 2026-095AD
Orbit
LEO
Country
Flag of USUS
Related business
None
Manufacturer
Unknown
Mission
Operational spacecraft
Bus & Motor
Unknown
Mass
Unknown
Launch date (UTC)
2026-04-28 (4 days ago)
Launch vehicle
Unknown
Launch site
Air Force Eastern Test Range (AFETR)
Object type
Payload
Rocket body
Debris
Shape & HBR
Unknown
Radar Cross Section
RCS unknown

Expand to show TLE details & history
Last TLE update: 8 hours ago

TLE from 8 hours ago
0 KUIPER-00521
1 68891U 26095AD  26122.16670139  .00003023  00000-0  88673-4 0  9994
2 68891  51.8827 104.8642 0001786  57.9479 162.4067 15.38456747  1729
Epoch: 2026-05-02T04:00Z
TLE epoch observation values (Epoch: 2026-05-02T04:00:03.000Z)
Latitude
-30.8341°
Longitude
32.52178°
Altitude
461.163 km
Speed
7.635 km/s
True Right ascension
20h 50m 29s
True Declination
-30° 40' 35"
Sunlit
Object was in daylight at epoch
Visualization orbit readout
Latitude
Unknown
Longitude
Unknown
Altitude
Unknown
Speed
Unknown
Apparent Right ascension
Unknown
Apparent Declination
Unknown
Sunlit
N/A
Visualization observer readout
Local Sidereal Time
19:28:42
Azimuth
Unknown
Elevation
Unknown
Doppler factor
Unknown
Orbital elements
Apogee altitude
452.358 km
Perigee altitude
449.918 km
Semi-major axis
6,829.275 km
Eccentricity
0.00018
Inclination
51.8827°
RAAN
104.8642°
Arg. of periapsis
57.9479°
True anomaly
162.41288°
Mean anomaly
162.4067°
Eccentric anomaly
162.40979°
Mean motion
3.84575 °/min
Orbital period
93.61 mins
BSTAR
0.000088673
Loading maneuver chart data...
Computing Atmospheric mass density...
Loading historical data...
Loading historical data...
Loading historical data...
Loading historical data...
Loading historical data...
Loading historical data...
Loading historical data...

Documentation

Showing up to 5 results
|